�������r�C�����j�^�v���󋵏��
Date,Time,5�C6���@���p�r�C��,����,����(m/s)
2021/12/15,00:00,3.9,���쐼,4.4
2021/12/15,00:10,3.8,���쐼,4.1
2021/12/15,00:20,4.0,���쐼,4.0
2021/12/15,00:30,4.0,���쐼,3.7
2021/12/15,00:40,4.1,�쐼,4.5
2021/12/15,00:50,3.9,�쐼,5.9
2021/12/15,01:00,3.9,�쐼,7.0
2021/12/15,01:10,3.9,�쐼,6.8
2021/12/15,01:20,4.0,�쐼,5.1
2021/12/15,01:30,3.9,��쐼,5.0
2021/12/15,01:40,4.0,��쐼,6.2
2021/12/15,01:50,4.0,��쐼,5.5
2021/12/15,02:00,3.9,��쐼,4.8
2021/12/15,02:10,3.9,�쐼,4.8
2021/12/15,02:20,3.8,��쐼,4.1
2021/12/15,02:30,4.0,��쐼,4.2
2021/12/15,02:40,3.8,�쐼,4.9
2021/12/15,02:50,4.1,�쐼,3.5
2021/12/15,03:00,4.0,��쐼,3.7
2021/12/15,03:10,4.0,��쐼,4.1
2021/12/15,03:20,4.0,�쐼,5.9
2021/12/15,03:30,4.0,���쐼,6.9
2021/12/15,03:40,4.1,���쐼,7.0
2021/12/15,03:50,3.9,���쐼,6.6
2021/12/15,04:00,3.9,�쐼,5.5
2021/12/15,04:10,4.1,�쐼,5.2
2021/12/15,04:20,3.9,��쐼,5.4
2021/12/15,04:30,4.0,�쐼,6.6
2021/12/15,04:40,3.7,�쐼,6.1
2021/12/15,04:50,4.1,�쐼,5.5
2021/12/15,05:00,3.9,�쐼,5.2
2021/12/15,05:10,3.9,��쐼,4.8
2021/12/15,05:20,3.9,��쐼,4.0
2021/12/15,05:30,3.9,��쐼,4.5
2021/12/15,05:40,4.0,��쐼,5.2
2021/12/15,05:50,4.0,��쐼,5.4
2021/12/15,06:00,4.0,��쐼,2.9
2021/12/15,06:10,4.0,���쐼,1.9
2021/12/15,06:20,4.0,��쐼,2.0
2021/12/15,06:30,3.9,��,6.0
2021/12/15,06:40,3.9,���쐼,4.2
2021/12/15,06:50,4.0,�쐼,4.1
2021/12/15,07:00,3.9,�쐼,4.9
2021/12/15,07:10,3.7,��쐼,3.9
2021/12/15,07:20,4.1,�쐼,3.0
2021/12/15,07:30,4.2,�쐼,2.8
2021/12/15,07:40,3.9,��,3.5
2021/12/15,07:50,3.8,��,3.8
2021/12/15,08:00,4.2,��쐼,4.3
2021/12/15,08:10,4.0,��쐼,4.7
2021/12/15,08:20,3.9,�쐼,5.4
2021/12/15,08:30,3.9,���쐼,5.3
2021/12/15,08:40,4.1,���쐼,5.7
2021/12/15,08:50,4.2,���쐼,5.1
2021/12/15,09:00,3.9,���쐼,3.1
2021/12/15,09:10,4.1,��쐼,3.0
2021/12/15,09:20,4.0,�쐼,2.2
2021/12/15,09:30,4.1,��,2.5
2021/12/15,09:40,4.0,�쐼,1.1
2021/12/15,09:50,3.9,��,5.1
2021/12/15,10:00,3.9,���쐼,6.5
2021/12/15,10:10,4.0,���쐼,7.7
2021/12/15,10:20,3.9,���쐼,5.3
2021/12/15,10:30,4.0,���k��,3.7
2021/12/15,10:40,4.0,���k��,5.8
2021/12/15,10:50,3.9,��,8.8
2021/12/15,11:00,3.8,���쐼,7.5
2021/12/15,11:10,4.0,���k��,4.6
2021/12/15,11:20,4.1,��,6.6
2021/12/15,11:30,4.0,��,9.2
2021/12/15,11:40,3.8,���k��,8.1
2021/12/15,11:50,3.7,���k��,9.6
2021/12/15,12:00,3.9,��,9.5
2021/12/15,12:10,3.9,���k��,8.9
2021/12/15,12:20,3.8,��,10.5
2021/12/15,12:30,4.1,���k��,9.0
2021/12/15,12:40,3.9,���k��,9.6
2021/12/15,12:50,3.8,���k��,8.6
2021/12/15,13:00,3.9,���k��,8.6
2021/12/15,13:10,3.9,���k��,8.8
2021/12/15,13:20,4.1,���k��,7.1
2021/12/15,13:30,4.0,��,7.2
2021/12/15,13:40,4.0,��,10.8
2021/12/15,13:50,4.0,��,9.9
2021/12/15,14:00,3.9,��,8.4
2021/12/15,14:10,4.0,��,7.1
2021/12/15,14:20,4.1,���쐼,6.2
2021/12/15,14:30,4.1,��,7.2
2021/12/15,14:40,3.9,���쐼,6.5
2021/12/15,14:50,4.0,��,7.7
2021/12/15,15:00,4.0,���쐼,8.6
2021/12/15,15:10,3.9,��,9.2
2021/12/15,15:20,4.0,��,7.4
2021/12/15,15:30,3.9,��,7.0
2021/12/15,15:40,4.1,��,8.1
2021/12/15,15:50,4.1,��,8.2
2021/12/15,16:00,4.1,��,9.2
2021/12/15,16:10,3.8,���k��,9.4
2021/12/15,16:20,4.0,��,6.6
2021/12/15,16:30,4.0,��,4.9
2021/12/15,16:40,4.1,��,5.6
2021/12/15,16:50,3.9,��,5.0
2021/12/15,17:00,4.0,��,3.9
2021/12/15,17:10,4.0,��,6.2
2021/12/15,17:20,4.2,��,6.8
2021/12/15,17:30,3.9,��,5.2
2021/12/15,17:40,4.0,��,6.8
2021/12/15,17:50,4.0,��,6.9
2021/12/15,18:00,4.0,��,5.6
2021/12/15,18:10,3.8,��,5.3
2021/12/15,18:20,4.0,���k��,5.0
2021/12/15,18:30,4.1,���k��,5.4
2021/12/15,18:40,4.0,���k��,4.7
2021/12/15,18:50,3.9,���k��,3.4
2021/12/15,19:00,4.0,�k��,2.8
2021/12/15,19:10,4.0,���k��,4.6
2021/12/15,19:20,3.9,���k��,3.6
2021/12/15,19:30,4.0,��,3.5
2021/12/15,19:40,4.0,���쐼,5.5
2021/12/15,19:50,3.9,��,5.1
2021/12/15,20:00,4.0,��,6.1
2021/12/15,20:10,4.0,��,6.6
2021/12/15,20:20,4.0,��,6.8
2021/12/15,20:30,3.9,��,6.3
2021/12/15,20:40,4.0,��,6.8
2021/12/15,20:50,3.9,��,7.1
2021/12/15,21:00,4.1,���쐼,6.0
2021/12/15,21:10,4.0,��,5.6
2021/12/15,21:20,4.0,��,5.6
2021/12/15,21:30,4.0,��,5.7
2021/12/15,21:40,3.8,���k��,5.0
2021/12/15,21:50,4.0,���k��,4.9
2021/12/15,22:00,4.0,���k��,4.5
2021/12/15,22:10,4.0,���k��,4.4
2021/12/15,22:20,4.1,�k��,3.8
2021/12/15,22:30,3.8,���k��,3.5
2021/12/15,22:40,3.8,���k��,5.7
2021/12/15,22:50,4.1,���k��,5.8
2021/12/15,23:00,4.1,��,6.9
2021/12/15,23:10,3.9,��,6.6
2021/12/15,23:20,4.0,��,5.6
2021/12/15,23:30,4.0,���k��,6.0
2021/12/15,23:40,4.0,���k��,6.7
2021/12/15,23:50,3.9,���k��,6.4
